Theta_e
314 313 314 313 319 322 324 330 332 329 326 320 317 319 316 320 322 318 319 319 320 319 318 325 326 322 324 331 334 336 336 340 342 338 340 340 336 338 338 336 334 332 335 339 339 340 340 340 339 339 338 336 336 334 334 333 331 326 320 320 323 327 330 332 331 332 331 331 331 331 331 333 332 330 332 334 334 333 331 329 329 331 329 329 330 331 331 330 331 331 330 330 329 329 327 327 329
314 313 316 317 322 322 325 335 334 326 325 317 315 320 316 319 320 318 322 320 321 319 322 332 333 331 333 336 337 334 332 336 335 333 337 337 338 339 337 336 333 331 335 339 340 339 340 340 339 339 337 336 336 334 334 333 330 327 325 321 321 326 329 331 331 332 331 331 331 331 331 332 331 330 332 334 333 332 330 329 329 330 329 329 330 330 330 330 330 330 330 329 329 328 327 327 328
314 316 318 322 322 324 331 334 330 325 323 318 318 323 319 320 320 323 325 319 320 322 326 331 330 330 334 336 336 333 331 336 337 336 338 338 339 339 338 335 332 330 334 339 339 339 339 339 339 338 337 337 336 335 334 332 330 326 325 323 322 324 328 331 331 332 331 331 331 330 331 333 333 332 334 334 333 331 330 329 329 330 329 328 329 329 329 329 329 329 330 330 329 329 329 328 328
317 320 321 323 324 331 341 334 331 327 321 320 319 323 326 326 323 323 322 318 318 322 323 323 325 324 332 342 337 335 338 338 338 338 339 338 338 339 338 335 333 330 333 338 338 339 340 339 338 337 338 337 336 335 334 333 331 328 325 324 322 321 325 329 331 332 331 332 332 330 333 335 334 333 334 334 332 332 331 329 328 327 327 328 329 328 328 329 329 329 330 330 329 330 330 329 328
318 322 322 323 324 332 336 328 330 326 318 322 319 322 334 331 324 322 319 318 317 319 320 324 334 326 330 338 334 339 341 339 338 337 339 338 338 338 338 336 334 332 334 337 337 339 339 339 338 338 338 336 335 335 334 333 332 329 326 325 323 321 323 326 330 332 331 331 331 331 333 333 333 333 334 333 332 331 330 331 329 326 327 328 328 328 329 329 329 329 329 330 330 330 330 329 329
318 321 324 321 319 324 325 319 320 324 322 325 323 325 333 328 322 322 319 318 318 319 319 324 334 333 336 334 330 337 338 338 339 338 338 338 339 338 338 337 336 335 335 337 338 339 339 339 338 338 337 335 335 334 334 333 332 330 328 326 323 321 324 327 329 331 331 331 331 331 331 331 332 332 333 333 331 330 330 332 330 327 327 328 328 328 328 329 329 329 329 329 330 330 330 329 328
319 322 327 324 320 322 327 324 320 323 320 320 328 328 327 325 321 321 319 319 318 316 319 324 330 336 338 332 331 335 335 336 337 338 339 339 339 339 339 337 336 336 335 337 338 338 338 338 338 337 337 335 333 332 333 333 333 332 330 327 324 321 323 328 330 330 330 331 331 331 330 330 331 331 330 331 331 331 332 332 330 327 326 327 328 328 329 329 329 329 329 329 329 328 328 327 326
321 323 328 331 331 329 330 325 321 323 317 316 324 325 324 324 321 320 321 320 319 317 320 324 327 335 332 330 338 337 334 336 337 339 339 339 340 340 339 337 337 336 335 336 337 338 338 337 338 337 337 336 333 332 333 333 333 332 332 328 325 321 321 326 329 330 330 331 331 330 330 330 330 329 329 330 330 331 332 331 329 325 324 327 327 328 329 329 329 329 329 330 330 328 326 326 324
320 319 324 330 332 330 326 318 316 320 319 319 320 322 324 321 318 319 320 319 317 317 320 320 321 325 329 335 342 336 335 337 337 339 339 340 340 339 339 337 337 336 335 336 337 337 337 338 337 337 337 335 332 331 332 333 332 332 333 329 325 322 320 323 326 328 329 330 332 330 330 330 330 330 330 330 330 331 331 329 328 324 322 326 327 328 328 329 329 329 330 330 330 328 327 326 324
321 321 323 330 332 323 318 318 320 320 318 320 319 322 322 318 318 317 318 317 316 317 317 321 325 326 331 340 341 335 336 337 338 340 340 340 339 339 338 337 336 336 336 337 337 337 337 338 336 335 336 335 331 328 329 332 331 330 333 330 325 323 320 319 322 325 327 329 331 331 330 330 329 329 330 331 330 330 330 329 328 324 323 326 326 327 328 328 329 329 329 329 329 328 327 326 324
327 329 330 332 330 321 318 320 323 323 318 318 318 320 320 317 317 316 317 316 316 318 315 319 331 336 335 338 338 334 334 337 339 340 340 340 339 339 338 338 336 335 336 337 337 337 337 337 335 333 335 334 329 326 327 330 330 330 332 330 325 324 321 318 317 321 324 326 329 331 329 329 328 328 329 329 329 329 329 328 327 325 324 326 326 327 327 327 328 328 328 328 328 327 326 325 325
327 332 343 338 326 324 326 323 320 322 317 317 318 317 318 315 315 317 318 316 318 319 318 318 328 336 336 336 335 332 334 338 339 340 340 340 339 339 339 337 336 335 335 336 338 337 337 337 335 332 333 333 328 326 326 328 329 330 332 331 327 324 322 319 317 316 317 320 325 328 329 329 328 329 329 329 329 328 328 327 326 325 324 325 326 326 327 327 327 326 326 326 326 325 325 325 325
332 335 342 328 321 325 325 322 319 321 318 319 319 315 315 314 316 319 320 319 319 318 316 317 326 336 336 334 334 332 335 338 338 340 340 340 340 340 339 337 336 337 336 336 337 337 337 337 336 332 330 330 328 326 326 328 328 330 332 331 328 325 323 322 319 317 315 315 318 322 326 327 326 327 327 327 327 326 326 325 325 324 323 324 325 325 325 325 325 323 324 324 325 325 325 325 325
331 341 343 324 320 324 323 320 319 319 319 322 320 313 314 314 316 319 321 320 319 318 313 314 326 337 335 333 337 337 337 337 338 340 340 340 340 340 339 338 337 338 338 337 337 337 337 337 336 331 327 328 327 325 325 327 329 331 332 332 330 326 325 323 321 320 316 315 314 315 320 323 323 324 325 326 326 325 325 324 324 324 323 324 325 324 323 323 323 322 323 323 324 324 324 324 324
324 344 347 329 321 320 321 319 320 321 319 322 317 313 315 313 314 317 320 321 319 315 311 313 320 325 328 337 341 337 337 337 338 340 340 341 340 340 339 338 339 339 340 338 337 337 337 337 337 332 328 326 325 325 325 327 330 332 332 332 331 328 326 324 324 322 319 316 313 312 315 319 321 322 324 324 324 325 325 324 324 323 323 324 324 323 322 322 322 321 321 321 322 322 323 323 323
331 344 337 324 318 316 318 318 320 321 318 319 314 314 317 312 313 316 315 317 316 313 317 317 317 319 323 334 334 331 336 337 338 339 340 341 340 341 340 340 340 340 340 339 338 337 337 337 337 335 331 330 326 324 325 327 330 332 332 332 332 330 327 325 325 323 321 318 315 312 312 314 317 319 321 321 322 324 324 324 323 322 322 323 323 322 322 322 321 321 320 320 321 321 322 322 322
329 339 333 321 318 317 318 319 320 321 322 320 314 315 318 313 313 313 310 315 315 316 325 323 320 325 327 330 325 327 338 337 337 338 338 339 340 340 340 340 340 340 340 339 338 337 337 337 337 336 335 334 330 325 324 326 330 332 332 332 332 331 329 327 326 324 323 321 316 313 311 310 311 315 318 318 320 322 322 322 322 321 320 320 322 324 322 321 322 321 321 321 321 321 321 322 322
327 336 333 321 322 320 320 324 320 320 321 318 316 317 319 316 314 313 312 316 317 316 321 324 329 330 328 328 324 329 338 336 337 337 337 338 338 340 339 339 339 339 340 339 338 337 337 336 336 336 336 336 332 327 324 324 329 332 332 332 332 331 330 329 327 325 324 322 319 316 313 310 308 309 314 316 317 319 320 320 320 320 319 318 321 324 322 320 321 321 321 321 321 320 320 320 321
333 335 326 327 334 322 319 325 319 317 318 317 317 316 317 316 315 314 314 316 316 317 318 325 337 336 330 328 327 333 336 336 337 335 336 337 337 339 339 339 339 338 339 339 338 337 336 336 336 336 336 336 334 330 326 324 327 331 332 332 332 331 331 330 328 326 325 324 321 319 316 312 308 306 308 311 313 315 316 317 317 317 317 315 316 319 319 318 318 319 319 320 320 320 320 319 319
329 330 322 330 338 323 317 320 318 318 317 318 317 313 314 315 314 313 316 316 315 319 322 324 334 343 338 331 329 333 335 335 336 335 335 335 337 338 339 339 338 338 339 339 339 337 336 336 335 336 336 336 335 333 328 325 325 330 332 332 332 332 331 331 330 328 326 325 323 322 319 316 311 307 305 306 307 309 311 311 312 312 314 313 312 313 314 315 315 316 318 318 318 319 319 318 318
320 327 329 327 326 320 317 317 317 316 315 318 317 314 314 313 313 313 316 317 316 319 323 323 330 347 340 331 330 331 333 334 334 335 334 334 336 338 338 338 338 338 338 338 338 338 337 336 335 335 335 335 336 335 331 327 325 328 331 331 332 332 331 331 331 330 328 327 325 323 321 319 316 310 305 305 304 305 306 306 308 309 310 312 310 310 311 312 314 316 317 317 317 318 318 318 318
317 319 323 322 319 317 316 317 317 314 313 317 317 315 314 312 313 315 317 319 320 318 319 320 326 343 339 332 331 330 331 332 333 334 333 333 334 336 338 338 338 338 338 337 338 339 337 336 335 335 335 335 336 335 334 330 325 326 328 329 330 331 331 331 331 330 329 328 326 325 323 321 319 314 309 307 305 304 305 304 305 306 308 310 310 309 310 310 313 315 316 317 317 317 317 318 318
320 316 316 319 318 317 317 317 317 314 315 317 317 315 314 314 314 315 315 317 320 318 316 314 319 331 333 330 330 331 331 330 331 334 333 334 333 335 337 337 338 337 337 337 338 339 338 337 336 335 335 335 335 336 335 333 329 325 326 328 329 330 331 331 331 331 330 330 328 326 325 323 321 318 314 311 308 305 306 305 304 304 306 309 310 310 309 309 311 313 315 316 316 317 317 318 318
324 319 315 316 316 317 317 317 317 316 318 317 314 313 314 317 315 312 313 316 319 316 309 307 315 325 328 329 331 330 330 330 331 333 334 335 334 334 336 337 337 337 337 337 338 339 338 338 336 335 335 335 335 335 336 335 333 329 326 328 328 329 330 330 330 331 331 330 329 328 326 325 323 321 319 316 312 308 307 306 304 304 305 307 310 310 310 309 309 311 314 315 316 316 316 316 316
321 318 316 316 315 317 317 316 318 318 317 314 313 314 315 316 313 312 316 318 318 315 310 313 322 327 329 331 332 329 329 330 330 333 333 334 334 334 334 336 336 336 337 336 337 338 339 338 338 337 336 335 335 335 336 336 335 333 330 329 329 329 329 329 329 330 331 330 330 329 327 326 325 323 322 320 317 312 309 308 306 304 304 306 309 311 310 310 309 310 311 313 314 314 314 314 314
318 318 318 317 315 315 315 315 319 319 316 314 314 316 315 314 312 315 321 319 317 317 321 328 331 332 332 331 330 329 328 328 329 331 332 333 333 333 333 335 336 336 336 336 336 337 338 339 339 338 337 336 335 335 336 335 335 334 333 332 330 330 329 329 329 330 330 330 330 329 328 327 327 325 324 323 320 317 312 308 307 305 304 305 309 311 311 310 309 309 309 310 310 311 313 313 314
318 320 318 318 318 315 315 315 316 318 316 315 316 316 316 314 314 317 320 315 314 320 327 329 334 336 332 331 329 328 327 328 329 330 331 331 332 333 333 334 335 336 337 336 337 337 338 339 339 338 337 337 336 336 335 335 335 334 334 334 332 331 330 329 329 329 330 330 330 329 329 328 328 327 326 326 324 321 316 311 308 305 304 305 308 311 311 310 310 309 308 308 308 309 312 314 316
316 319 317 319 320 316 315 316 315 316 315 315 316 316 316 314 316 319 316 312 312 319 326 326 333 336 330 331 329 326 327 327 328 328 329 330 331 332 332 333 334 335 336 337 337 337 338 338 338 337 336 336 336 336 336 335 335 334 334 334 334 333 332 330 329 329 330 330 331 330 329 328 328 328 327 328 326 324 320 314 309 306 305 305 308 311 311 310 310 309 308 307 307 309 312 314 316
316 318 317 320 325 319 314 315 316 316 315 315 315 314 316 316 317 318 314 313 313 316 322 324 327 327 326 329 328 326 326 326 327 326 328 329 330 331 331 333 333 334 336 337 337 337 338 338 338 337 336 336 336 337 337 336 335 334 334 334 334 333 332 332 330 329 330 330 331 330 330 329 328 328 328 328 328 326 323 317 312 309 306 304 307 310 311 311 309 308 307 307 308 310 312 314 315
316 317 319 321 324 319 314 315 316 315 315 315 313 313 320 321 318 315 311 311 312 315 319 320 320 319 319 323 325 327 324 323 324 325 327 328 329 329 330 331 331 333 334 335 336 336 338 338 338 338 337 336 336 337 337 337 336 335 335 335 335 334 333 333 331 330 330 331 331 330 330 329 329 329 328 328 328 328 325 320 316 312 307 304 307 310 311 310 308 307 306 307 307 309 312 314 315
317 313 322 324 316 318 318 316 317 314 314 314 311 313 320 321 318 315 311 311 313 316 319 319 318 316 315 317 319 323 322 321 323 324 326 326 327 328 328 330 330 331 332 332 334 335 336 337 338 338 337 337 336 337 337 337 337 336 336 335 335 335 334 333 332 332 332 332 332 331 330 330 330 329 329 328 328 328 327 324 320 315 308 303 306 309 310 309 307 307 307 308 308 309 311 313 314
324 312 322 324 313 320 324 317 317 315 313 314 312 315 320 320 319 316 312 313 313 315 319 318 317 316 314 314 313 316 316 316 318 322 324 324 325 326 326 328 328 329 330 331 332 333 335 336 337 337 337 337 337 337 338 338 337 336 336 336 336 336 335 334 333 333 333 333 332 332 332 331 331 330 330 329 329 329 328 327 326 320 309 303 305 309 309 309 308 309 310 310 310 310 311 312 313
327 314 319 323 315 320 321 316 318 317 315 315 312 316 320 319 320 317 312 314 315 315 319 318 318 317 314 313 312 312 312 311 312 314 319 322 323 324 325 325 325 326 327 329 330 331 332 333 335 336 336 337 337 337 337 337 337 336 337 337 336 336 335 335 333 333 333 333 333 332 332 332 331 331 331 330 330 330 329 329 328 325 316 306 304 308 309 309 311 313 313 312 312 312 311 311 312
322 317 318 321 319 318 318 318 318 315 315 316 314 315 319 320 321 319 314 313 314 317 320 321 319 318 315 313 311 311 311 312 310 309 312 317 320 322 322 323 323 323 324 325 327 328 330 331 333 334 335 336 336 337 337 337 337 336 337 337 337 336 336 335 334 334 333 333 333 333 333 333 332 332 331 331 330 330 329 328 327 327 324 315 307 306 308 311 313 315 315 313 311 312 312 312 311
320 320 318 318 316 315 318 321 317 314 315 317 317 316 319 321 319 319 316 311 314 318 319 318 318 318 317 314 313 312 311 311 310 308 310 312 314 317 319 320 321 321 322 323 325 326 327 328 330 331 333 334 335 336 336 337 336 336 337 337 337 337 337 336 335 335 334 334 333 333 333 332 332 332 331 331 330 330 329 327 325 324 324 320 312 307 307 310 313 314 316 315 311 310 311 311 310
322 324 325 324 320 317 319 321 317 314 316 318 319 318 320 320 317 319 318 312 313 318 317 316 316 316 315 314 313 312 312 312 309 307 309 310 311 312 314 317 319 321 321 322 324 326 326 327 328 329 330 332 333 334 335 335 335 336 336 336 336 336 337 336 336 336 335 335 334 334 333 332 332 331 332 331 330 330 330 329 327 325 322 316 311 310 310 311 313 314 315 315 312 308 307 308 309
321 325 328 326 321 319 318 319 318 314 315 319 319 319 320 319 318 318 315 311 313 317 318 318 316 315 314 314 314 312 312 311 308 308 309 309 310 310 311 313 316 320 321 322 324 325 326 327 327 328 329 330 332 332 333 334 334 334 334 335 335 335 336 336 336 336 335 335 335 335 335 334 333 332 332 332 331 329 329 329 327 323 322 317 312 312 315 314 314 315 316 315 313 309 306 306 307
322 323 326 323 320 321 317 316 318 315 314 319 319 318 319 319 318 316 312 311 314 316 316 316 315 313 312 313 313 313 312 311 309 309 308 309 311 310 310 310 312 317 320 321 323 323 324 326 327 328 328 329 331 331 332 332 333 333 333 333 334 334 334 335 335 335 335 335 335 335 335 334 334 333 332 332 332 330 328 328 327 324 320 319 315 312 313 314 313 314 313 312 310 309 307 306 305
327 323 323 322 319 319 317 316 317 314 315 321 323 321 318 317 317 315 313 313 313 313 313 313 313 312 311 312 312 312 312 312 312 310 307 308 310 311 310 310 311 314 317 319 321 323 323 325 327 328 328 329 330 331 331 331 332 332 332 332 332 332 333 333 334 334 334 334 334 334 334 333 333 333 333 333 333 332 330 328 329 329 325 322 318 313 312 312 313 312 311 310 308 306 305 304 304
327 325 322 321 320 320 319 318 316 314 313 318 322 320 317 317 320 319 313 310 312 314 313 311 311 312 311 311 312 312 312 312 312 312 309 307 308 310 310 310 311 312 315 319 321 322 323 324 325 326 328 329 329 330 331 331 331 331 331 331 331 331 332 332 332 332 332 332 332 332 332 332 332 331 332 333 332 332 331 330 328 328 328 326 322 318 315 314 314 313 311 311 309 304 302 302 303
323 332 332 325 325 324 320 318 318 317 314 316 318 317 322 327 330 330 318 310 312 313 313 314 314 311 310 312 312 311 312 312 312 313 311 305 305 308 310 310 311 311 313 317 319 321 322 323 324 325 327 327 329 330 330 331 331 330 329 329 329 329 329 329 329 330 331 331 331 331 331 331 330 330 330 330 330 330 331 331 330 328 327 326 324 322 319 317 315 314 312 311 310 308 304 301 301
319 329 331 325 330 329 321 321 325 323 317 315 312 314 331 338 332 329 321 317 316 313 314 319 318 312 310 315 315 312 312 313 313 313 311 306 304 306 308 309 310 310 312 313 316 319 321 322 324 325 326 327 328 329 330 330 330 329 329 328 328 327 327 327 328 328 329 329 329 330 329 329 329 329 329 329 330 330 330 330 330 330 329 327 327 325 323 320 316 313 312 310 310 310 307 302 300
318 320 321 323 333 330 323 323 322 322 316 311 313 315 322 327 323 321 318 319 320 316 318 320 316 312 310 312 313 312 313 316 318 318 314 308 305 306 307 309 309 310 311 312 314 318 320 322 323 324 325 326 328 328 329 329 329 329 329 329 328 327 327 326 327 327 327 328 328 329 329 329 329 328 328 328 329 330 330 329 328 329 329 328 327 325 323 321 318 316 314 312 311 311 308 304 301
318 317 321 326 330 326 328 329 324 324 318 317 326 322 314 318 319 319 316 316 320 319 318 318 314 313 314 316 318 316 316 320 324 328 324 312 305 307 309 310 310 310 310 310 312 315 319 321 323 324 325 326 327 328 329 329 329 329 329 329 328 328 327 327 327 327 327 326 326 327 328 328 329 328 328 328 328 329 329 330 329 327 327 328 327 325 322 320 319 318 316 315 314 312 310 308 305
319 316 321 324 325 328 335 337 332 324 315 322 331 317 312 323 325 322 316 313 318 319 317 317 314 315 319 325 329 326 322 321 323 330 325 311 306 308 311 311 311 310 310 310 311 313 316 319 322 323 325 326 327 327 328 328 329 329 328 328 328 328 328 327 327 326 325 325 325 325 325 326 326 327 327 327 327 327 328 329 330 329 328 328 328 327 325 323 320 319 317 314 312 311 310 309 307
318 315 319 321 324 330 333 334 330 319 314 327 330 314 312 320 326 327 316 310 318 321 317 316 315 317 322 329 333 332 331 328 328 328 315 307 309 310 311 312 312 311 311 310 311 312 313 317 320 322 323 324 326 326 327 327 328 328 328 328 327 327 327 326 326 325 324 324 324 324 323 324 324 324 325 325 325 326 327 328 329 330 329 329 328 327 326 325 323 321 319 317 314 312 309 307 307
315 320 324 322 326 332 333 333 325 313 321 332 324 317 313 313 324 329 315 311 316 316 316 317 318 321 324 331 335 335 338 337 337 335 316 306 311 313 312 313 312 312 312 311 311 311 312 314 316 319 321 322 324 324 325 326 326 327 327 327 327 326 326 325 324 324 324 323 323 323 323 323 323 323 323 323 323 324 325 326 328 329 329 329 329 328 326 326 325 323 321 318 316 313 311 309 308
319 328 328 320 325 329 331 332 321 314 328 327 318 316 314 312 323 324 317 317 315 312 316 317 317 322 326 333 336 337 342 341 340 344 329 313 313 314 313 313 312 313 313 312 313 312 312 313 314 315 317 318 320 321 322 324 324 325 325 326 326 326 325 324 324 323 323 323 323 322 322 322 321 321 321 321 321 322 323 324 325 326 327 327 327 327 326 325 324 323 322 319 316 313 311 309 308
322 324 325 321 322 321 324 330 323 320 325 317 314 317 314 315 319 316 317 318 315 315 317 315 315 319 327 331 334 338 343 342 340 341 340 329 317 310 311 313 313 313 313 313 313 313 313 312 312 313 314 315 316 317 318 320 321 322 322 323 324 324 324 323 323 323 322 322 322 321 321 320 320 319 319 319 319 320 320 321 322 323 323 324 324 324 324 324 322 321 321 320 318 316 314 311 310
319 319 323 323 322 317 321 325 318 317 321 314 311 315 316 318 315 313 317 313 313 318 318 318 317 318 325 328 332 338 335 335 338 337 342 338 316 306 310 314 313 314 314 314 314 313 313 313 312 313 312 313 313 313 314 315 316 317 318 319 320 321 321 321 321 321 321 321 320 320 320 319 319 318 318 318 318 318 318 318 318 319 320 320 321 321 321 321 321 321 321 321 320 318 317 314 312
318 318 317 319 326 326 322 323 319 320 322 316 310 314 323 321 310 314 319 313 312 317 317 318 316 318 327 329 330 332 328 330 337 339 340 327 309 308 313 313 313 315 313 314 314 314 314 314 313 313 313 313 313 312 312 312 313 314 314 316 317 318 318 318 319 319 319 319 319 318 318 318 318 317 317 317 316 317 316 316 316 317 317 317 317 317 318 318 319 319 320 320 320 319 317 315 312
317 315 313 315 322 326 319 315 320 320 318 318 314 318 326 318 308 312 314 310 311 313 314 314 313 318 326 327 327 327 327 331 334 338 340 322 309 311 314 313 314 315 314 314 314 313 314 313 313 313 313 313 312 312 312 312 312 312 313 314 314 315 316 316 317 317 318 318 317 317 317 317 317 316 316 316 315 315 315 315 315 315 315 315 316 316 316 317 317 317 317 318 318 318 317 315 314
316 314 318 319 317 325 321 310 312 313 312 317 316 319 325 317 312 317 313 310 311 311 313 313 313 319 320 319 322 324 325 328 329 333 333 319 309 312 314 314 314 315 314 315 315 314 314 313 313 313 312 312 312 312 312 312 312 311 312 313 313 314 314 315 315 316 316 316 316 317 316 316 316 315 315 315 314 315 314 314 314 314 314 314 314 315 315 315 314 314 314 314 316 317 316 314 313
320 320 322 317 311 320 322 314 319 318 315 319 316 316 322 319 318 322 315 311 312 311 313 314 315 318 317 316 319 321 322 326 329 330 324 312 307 312 314 313 314 314 315 315 315 315 314 313 314 313 313 313 312 312 312 312 312 311 311 312 312 313 313 314 315 315 315 316 315 316 315 315 315 315 315 314 314 314 313 313 313 313 313 313 313 313 313 312 312 312 311 311 313 315 316 315 314
319 322 319 317 317 321 318 314 321 320 315 321 320 313 314 316 320 322 314 312 314 312 312 315 316 316 316 316 318 320 323 327 328 330 328 315 307 310 312 312 313 313 314 315 315 315 315 315 315 314 314 314 313 313 312 312 312 311 311 311 311 312 312 313 314 314 315 315 315 315 315 315 315 314 314 314 314 313 313 313 313 313 312 312 312 312 312 312 312 312 311 311 312 313 314 314 314
314 314 312 317 324 324 319 315 317 317 315 319 321 318 317 318 319 320 314 312 313 312 314 315 314 314 315 315 317 318 320 324 323 326 330 317 307 309 311 310 312 311 312 313 313 314 315 314 314 313 314 313 313 313 312 311 312 311 311 311 311 311 311 311 312 313 313 313 314 314 314 314 314 314 314 314 313 313 313 313 312 312 312 312 312 312 312 313 313 313 312 311 311 312 313 313 313
315 316 314 316 318 317 319 317 315 318 321 321 319 317 320 320 316 317 314 312 313 315 317 315 314 314 315 314 316 316 317 320 319 321 325 313 306 310 311 310 311 311 311 311 311 313 313 313 313 313 313 313 312 312 312 311 311 310 311 311 311 311 310 311 311 311 312 312 312 313 313 313 313 313 313 313 313 313 312 312 312 312 312 312 312 312 312 313 313 313 312 311 310 310 311 312 312
315 316 316 316 317 316 318 316 313 315 317 321 320 314 318 321 314 313 315 311 312 316 316 316 315 314 314 314 316 317 317 317 316 319 320 310 307 309 310 310 310 309 310 310 311 312 312 312 312 311 312 312 312 311 311 311 310 310 310 310 310 310 310 310 310 310 310 310 311 311 312 312 312 312 313 312 312 312 312 312 311 311 311 311 312 312 312 313 313 313 312 312 311 309 309 310 310
Wind_Speed
9 10 10 7 6 4 3 3 2 3 4 2 1 1 2 2 2 2 2 2 1 1 1 2 3 2 3 5 6 6 4 4 4 4 3 4 9 23 20 15 18 21 20 18 16 16 15 15 15 15 14 12 10 11 12 12 13 14 15 16 16 16 17 16 16 16 15 15 15 15 15 12 11 12 12 13 13 14 14 14 15 16 15 16 18 18 17 17 17 16 16 16 16 18 19 20 20
9 8 7 5 4 2 2 3 3 3 5 1 2 2 2 1 1 5 6 4 3 2 2 5 7 5 6 7 5 3 1 1 3 3 1 4 14 22 17 15 20 21 20 18 17 15 15 15 15 15 14 13 11 11 12 13 13 14 14 15 16 17 17 17 16 15 15 15 15 15 14 11 11 12 12 13 14 14 15 15 16 16 16 16 18 18 17 17 16 16 15 16 16 17 19 20 20
8 6 6 3 3 2 1 3 2 1 4 2 4 3 1 1 6 7 7 5 5 6 5 5 6 5 5 5 2 2 0 3 2 1 2 11 14 18 17 16 20 20 20 19 17 16 15 15 15 16 15 13 11 12 13 13 13 13 14 14 16 16 16 16 16 15 15 15 14 15 14 12 12 12 13 14 14 15 15 15 15 15 16 18 18 18 18 17 16 16 15 16 16 17 18 19 20
6 6 7 2 1 3 4 4 2 4 4 3 3 4 2 5 8 6 6 4 5 5 3 2 4 1 3 3 1 2 1 2 3 2 4 12 14 19 19 17 21 20 20 19 17 17 15 15 16 16 15 13 11 12 13 13 12 13 13 13 15 15 16 17 16 15 15 15 14 15 15 13 13 13 13 14 14 15 14 14 13 14 17 18 18 18 17 17 16 16 16 16 16 18 18 19 19
5 7 6 2 1 1 3 3 2 4 4 5 2 5 5 6 7 5 3 2 2 3 2 3 2 2 1 3 1 1 3 1 3 4 7 12 15 21 19 19 22 20 20 18 17 17 17 16 16 17 15 12 11 12 13 12 12 12 12 13 13 14 16 16 16 15 15 15 14 15 15 14 14 13 13 13 13 14 15 15 15 16 18 18 18 17 17 16 15 15 16 16 17 19 18 18 17
4 5 3 3 1 1 3 1 2 2 5 5 4 5 6 6 7 5 3 1 1 3 3 2 3 2 1 1 1 3 3 1 3 5 11 13 16 21 18 21 22 20 20 18 18 18 18 18 17 16 14 12 12 12 12 12 12 12 12 12 12 13 14 15 15 15 15 15 15 15 14 14 14 13 13 13 13 13 14 16 16 17 18 18 17 17 16 15 15 15 16 16 17 18 17 16 15
4 3 2 3 1 2 3 3 4 3 2 5 4 5 7 6 5 5 4 2 1 1 2 2 4 6 1 2 0 2 1 1 3 6 13 14 17 20 19 22 21 20 20 18 18 18 19 19 17 16 13 12 11 12 12 12 12 11 11 12 12 13 14 14 14 14 15 15 15 14 14 13 13 12 13 13 12 12 14 15 14 14 17 18 17 16 15 15 15 16 16 16 16 16 16 15 15
3 1 1 3 1 4 4 2 3 3 1 3 5 5 8 7 5 6 4 2 2 1 2 3 3 6 0 1 1 4 3 3 4 8 15 15 19 19 19 22 21 21 20 19 19 18 19 18 17 15 14 13 12 13 12 12 12 11 11 11 12 12 13 14 14 13 14 15 14 14 13 13 12 13 13 13 12 12 13 13 12 12 16 17 16 16 15 15 15 15 15 15 14 15 16 16 16
3 1 0 3 2 3 3 2 1 2 2 3 3 3 4 5 4 4 4 1 1 3 3 5 2 2 2 2 1 5 3 5 7 11 16 16 19 19 20 21 20 21 21 20 19 19 19 18 17 15 15 14 13 14 13 13 12 12 11 10 11 12 12 13 13 13 14 14 13 13 13 13 13 13 13 12 12 11 11 12 11 11 15 17 16 15 15 15 15 15 14 14 14 14 15 15 15
2 2 1 2 3 3 3 1 1 1 4 4 4 4 4 5 4 2 4 2 2 5 3 2 3 2 4 2 2 3 2 6 13 15 17 18 20 20 20 19 19 20 21 21 20 19 18 18 17 16 16 15 15 14 14 14 12 12 11 10 11 11 11 12 13 13 14 14 14 12 12 12 12 12 12 11 11 10 11 12 12 12 16 17 15 15 14 14 14 14 14 14 14 14 15 15 14
1 3 3 4 4 2 2 3 3 3 4 4 3 4 4 5 4 1 2 3 1 3 2 1 3 3 4 0 3 2 2 10 17 19 20 21 20 20 20 19 19 19 20 22 20 19 18 17 16 16 16 15 15 14 15 14 12 12 11 11 10 10 11 11 12 12 13 15 15 13 12 12 11 12 11 11 10 10 11 12 12 13 16 16 14 14 13 13 13 13 14 14 14 15 15 14 13
1 3 4 4 3 3 3 4 4 4 5 3 2 3 5 6 4 3 3 4 1 2 3 2 4 5 4 2 3 3 3 13 19 20 22 22 21 20 19 19 20 18 19 21 20 19 18 17 16 16 16 15 15 15 15 14 13 12 12 11 10 10 10 10 11 11 12 14 16 15 13 12 12 13 12 11 11 10 11 12 12 13 16 15 14 13 12 12 12 13 14 14 14 14 13 12 12
3 1 5 3 3 3 3 4 3 1 4 4 4 2 6 6 4 6 6 4 2 3 3 5 6 6 3 2 3 4 5 15 19 21 23 22 21 19 19 20 19 18 18 19 20 19 18 17 17 16 15 15 15 15 14 14 13 12 12 11 10 10 10 10 10 10 10 12 14 15 14 13 13 13 12 11 11 12 12 12 12 13 15 16 15 13 12 12 13 14 14 13 13 12 11 11 11
3 3 5 3 2 3 4 2 2 2 3 6 3 3 5 3 4 6 7 5 3 4 1 3 7 5 2 1 3 4 8 15 19 23 24 22 21 19 19 19 19 18 18 19 20 20 19 18 17 17 16 16 15 15 15 14 14 13 12 11 11 10 10 10 10 10 10 10 11 12 13 13 13 14 13 12 13 13 13 12 13 14 16 17 16 14 14 14 15 15 13 13 12 11 11 11 11
3 2 4 4 2 1 4 2 2 5 4 5 3 5 5 0 4 5 5 6 5 4 1 2 3 1 2 4 4 7 14 18 21 24 24 23 21 20 19 19 19 18 18 19 20 20 21 19 18 18 17 17 16 16 16 16 15 14 13 12 11 10 10 10 9 10 9 9 9 10 11 12 13 14 14 13 14 15 14 13 14 15 17 17 15 15 16 16 16 15 14 13 12 12 11 11 11
3 4 5 3 1 1 4 2 3 3 5 4 3 4 6 1 3 4 4 5 3 1 2 0 1 1 4 7 4 11 22 22 23 24 23 24 22 21 20 19 20 19 19 20 21 21 21 21 20 19 18 17 17 17 17 17 16 15 14 12 12 11 10 10 9 9 9 9 8 9 10 10 11 12 12 12 14 16 15 14 15 15 16 16 14 14 16 16 15 14 13 12 12 12 11 11 11
3 4 4 2 2 3 4 4 5 3 5 4 4 4 8 0 1 2 1 5 4 1 3 2 2 2 4 6 7 11 28 24 24 23 21 23 22 21 20 21 22 21 21 22 22 22 22 22 21 21 20 19 18 18 18 18 16 15 15 14 13 12 11 10 10 10 9 9 9 9 9 10 10 11 12 11 14 15 15 14 14 14 14 15 13 12 14 15 14 13 12 11 11 11 11 12 12
4 3 3 2 3 3 5 7 7 4 4 6 5 5 8 5 2 1 2 5 3 2 3 3 4 4 2 7 5 17 30 25 25 24 21 22 21 21 21 22 23 23 24 24 24 24 24 24 23 22 21 20 19 19 19 18 18 17 16 16 15 13 12 12 11 11 10 10 9 9 9 9 9 10 11 12 13 14 13 13 14 13 13 14 13 11 13 15 13 12 12 11 12 12 12 12 12
4 3 3 3 5 4 5 6 6 3 4 6 4 2 5 6 4 3 2 1 2 2 3 6 5 5 5 3 8 24 29 25 26 24 22 21 21 23 23 23 24 25 25 26 26 25 26 25 24 24 23 22 20 20 19 19 20 19 18 17 16 15 14 13 13 12 11 10 10 9 9 9 9 10 11 12 13 13 13 12 12 12 12 13 13 13 15 15 13 13 12 12 12 12 12 12 12
2 4 2 5 6 4 4 6 6 5 4 7 4 2 2 3 3 2 4 3 1 4 4 1 3 6 3 2 12 23 24 23 24 22 21 21 21 23 25 26 27 28 28 28 27 26 27 26 26 25 24 24 22 21 21 21 21 21 20 19 18 17 16 15 14 13 12 11 11 10 10 10 10 10 11 12 12 13 13 12 11 12 12 13 15 17 17 16 14 14 13 12 12 12 11 11 11
2 4 3 5 3 1 3 6 5 5 5 7 5 4 1 2 2 2 7 6 2 6 7 7 8 8 5 4 10 19 20 19 20 21 20 20 21 23 26 28 29 28 27 27 27 27 28 28 27 26 26 25 24 23 22 22 22 23 22 21 20 19 18 17 15 15 13 12 12 12 12 11 11 11 12 12 12 13 13 13 12 13 13 14 16 18 17 16 15 14 14 13 12 12 11 11 11
2 1 4 5 3 1 2 4 2 2 5 6 7 5 4 2 1 3 9 7 6 7 8 11 10 10 12 10 12 15 16 17 19 20 20 21 22 23 24 25 26 25 25 27 29 29 29 29 29 28 27 26 26 25 24 23 23 24 24 22 21 20 20 19 18 17 15 14 14 14 13 13 13 13 13 13 13 13 13 13 13 14 14 15 17 17 16 16 16 15 15 14 13 12 12 12 11
2 1 2 3 4 1 2 1 1 3 7 7 6 4 3 4 1 3 8 8 8 6 6 8 8 11 15 14 13 13 13 16 19 23 25 25 25 26 27 27 27 26 27 29 30 30 30 30 30 29 28 28 27 27 25 25 24 25 25 24 23 22 22 21 20 19 18 16 16 15 15 15 15 15 15 14 14 14 14 14 14 14 14 15 17 17 16 17 17 16 15 15 14 13 13 13 12
5 2 1 1 3 2 3 3 1 4 7 6 4 3 3 5 3 1 5 9 9 5 3 4 8 12 14 12 12 13 15 19 23 28 29 29 31 30 29 29 29 28 27 29 31 31 31 31 31 31 30 29 29 28 28 27 26 26 26 26 25 24 24 23 22 21 20 19 18 17 16 16 16 16 16 15 15 15 15 14 14 15 15 15 17 17 17 17 17 17 16 15 14 14 13 13 12
4 3 2 2 1 2 4 4 5 5 4 2 4 4 2 5 3 1 7 11 8 3 2 4 10 11 11 11 12 12 13 17 21 25 27 28 27 25 25 26 27 27 28 31 31 32 33 32 31 32 32 32 31 30 30 29 28 28 27 28 27 26 26 25 24 23 22 21 20 19 18 18 18 17 17 16 16 16 16 16 15 16 16 16 17 17 17 17 18 18 17 16 15 14 13 12 12
2 4 2 3 2 4 4 4 5 4 2 2 5 2 3 2 1 3 9 8 3 3 6 6 9 9 10 10 12 12 11 15 20 23 26 26 22 21 24 25 26 29 32 32 32 34 34 33 32 33 33 33 33 32 32 31 30 30 29 29 29 28 27 26 25 25 24 23 23 22 21 20 19 18 18 17 17 17 17 17 17 17 17 18 18 18 18 18 18 18 18 17 16 15 14 13 12
3 6 5 5 2 4 4 2 4 4 1 2 4 3 4 2 2 4 7 5 1 6 6 5 8 9 11 9 10 13 14 18 23 22 21 21 21 25 27 27 29 32 32 32 34 36 35 35 34 33 33 33 34 33 33 33 32 32 31 30 30 29 28 27 27 26 26 26 25 24 23 22 21 20 19 18 18 18 19 19 19 19 19 19 19 19 19 19 18 18 18 17 16 15 14 13 12
4 6 5 7 5 2 4 3 3 3 1 1 4 3 3 2 2 5 3 6 0 6 6 5 7 7 9 9 9 11 14 20 22 19 19 23 28 31 31 33 35 34 34 36 37 36 36 36 36 35 34 34 34 35 34 34 33 33 32 31 31 31 29 28 28 28 28 28 27 26 25 24 23 22 21 20 19 19 20 20 20 21 21 21 21 21 20 20 19 18 18 17 16 15 15 14 14
3 5 4 6 8 3 3 2 3 2 1 2 2 1 5 2 5 6 1 5 3 4 5 5 7 6 6 7 7 8 12 16 16 19 25 29 32 33 35 39 38 36 38 38 36 35 37 37 37 36 35 35 35 36 35 35 34 33 32 32 32 31 31 30 30 29 29 29 29 28 27 26 25 24 23 22 21 20 21 21 22 22 22 22 22 22 21 21 20 19 18 17 17 17 17 16 15
1 4 4 2 7 4 3 2 3 0 1 3 2 0 7 7 9 7 3 3 4 2 6 6 6 6 5 6 6 7 11 13 16 24 30 31 32 32 35 39 36 36 37 35 34 36 37 37 37 37 36 36 36 36 36 35 34 33 33 33 32 32 32 31 31 31 30 29 29 30 29 28 27 26 25 24 23 22 22 22 23 23 23 24 24 24 23 23 22 21 20 19 18 18 18 18 18
2 3 3 2 1 4 5 2 1 3 1 3 6 2 6 8 10 8 5 1 6 6 7 7 7 6 6 6 6 8 10 15 21 27 30 31 32 31 34 36 35 35 35 34 37 38 37 37 37 37 37 37 37 37 37 36 35 34 34 33 33 33 33 33 32 32 32 30 29 30 31 31 30 29 27 25 25 25 24 24 23 24 25 25 26 26 25 24 23 22 21 21 20 20 20 19 19
4 2 2 4 2 5 7 2 2 3 1 5 7 2 6 8 10 7 4 2 7 7 7 7 7 7 7 6 7 8 9 15 22 26 29 31 32 33 35 36 36 37 37 37 37 36 36 37 37 37 37 38 38 39 38 37 36 35 35 35 34 34 34 34 33 33 33 32 31 31 32 33 32 32 30 27 26 27 27 25 24 24 26 27 28 28 27 26 25 23 22 22 22 22 22 21 21
4 3 2 2 1 3 5 2 1 1 0 3 3 2 4 5 7 7 4 5 5 4 6 7 7 8 7 6 7 7 8 11 15 23 30 32 34 36 37 37 37 38 38 38 37 36 37 37 38 38 38 39 39 39 38 37 36 36 36 35 36 36 35 35 34 34 33 33 32 32 32 33 34 35 33 31 30 30 30 28 25 24 26 28 30 30 29 27 26 25 23 23 24 24 24 24 23
3 2 1 3 3 2 2 3 3 4 2 1 2 1 6 7 8 9 5 4 3 3 6 7 6 7 7 6 7 7 8 9 10 20 30 34 36 37 37 38 37 37 37 38 38 37 37 37 38 39 39 38 38 38 38 37 37 36 36 36 36 37 37 36 35 35 35 35 34 34 33 33 35 36 36 35 34 34 33 32 30 27 26 29 31 32 32 30 28 27 25 24 25 25 25 26 25
5 3 3 2 2 3 3 3 2 3 3 1 2 2 9 11 10 11 9 1 2 7 7 7 7 7 7 7 7 8 9 10 13 20 27 29 32 35 36 36 36 36 36 37 37 37 36 36 37 38 39 38 37 37 37 37 36 35 35 36 36 37 38 37 37 37 37 37 36 36 36 34 35 35 36 36 36 36 35 34 33 32 30 31 33 34 33 32 30 29 27 26 27 27 26 27 26
9 6 5 5 3 4 5 4 4 1 3 2 4 5 9 10 10 12 10 2 1 8 7 7 8 7 8 7 7 9 9 12 16 21 24 24 28 31 33 34 35 35 35 34 35 35 36 36 36 37 39 38 37 35 36 36 35 35 35 35 36 38 38 38 38 38 38 38 37 37 37 36 35 35 36 36 37 37 36 36 35 34 34 34 35 36 36 34 33 31 29 28 28 27 25 25 25
7 6 5 4 4 2 4 3 5 1 2 3 3 4 9 10 11 12 10 5 4 9 9 9 9 8 8 8 9 10 11 13 14 17 20 22 24 26 28 30 31 32 32 32 32 34 36 37 37 37 38 38 37 36 36 36 36 35 34 36 38 37 37 38 38 39 39 38 37 37 37 36 36 36 36 36 37 37 36 36 36 35 35 36 37 38 38 38 37 36 33 31 30 29 28 27 26
5 6 5 1 2 2 3 1 4 3 1 3 2 4 10 11 11 12 9 6 7 10 10 10 11 10 8 9 11 11 10 10 10 13 16 18 21 22 24 26 28 30 33 33 34 35 36 36 36 37 37 37 38 39 38 38 39 38 36 37 37 36 36 37 38 39 39 38 38 37 38 37 36 36 36 36 38 38 37 37 36 34 34 36 38 38 38 38 38 37 35 33 31 31 30 30 31
5 4 5 3 2 2 3 2 4 5 1 3 5 5 10 10 11 13 10 8 9 8 9 10 10 10 9 9 11 10 10 10 9 10 13 17 19 19 20 23 27 31 33 33 34 34 34 34 35 35 36 37 39 40 39 40 40 39 37 36 35 34 35 37 38 38 37 38 38 38 38 38 37 37 36 36 37 37 36 37 37 37 37 38 38 38 37 37 38 37 36 34 32 30 29 30 34
5 4 5 2 2 1 1 2 3 3 2 1 4 5 8 7 7 10 8 6 6 6 7 9 9 10 11 10 8 8 10 11 10 9 10 13 16 16 18 22 25 28 29 30 31 32 33 34 35 36 36 36 37 39 40 40 37 35 35 34 32 32 33 34 34 35 36 37 38 39 39 39 38 38 37 37 37 36 36 37 38 38 40 41 41 40 40 39 40 40 40 37 33 30 28 29 35
1 3 6 3 3 4 2 1 2 3 3 3 3 5 7 5 5 7 6 4 5 5 6 8 8 8 9 9 8 8 9 9 10 10 9 9 12 16 18 22 23 25 28 30 31 32 33 34 35 35 36 36 36 37 38 38 35 32 31 30 28 27 28 29 30 33 36 37 38 39 39 39 38 38 38 37 38 38 38 38 37 36 39 41 40 39 40 40 40 42 43 41 39 35 31 30 34
2 3 6 6 6 6 2 2 4 4 4 4 5 4 6 6 5 7 5 7 7 6 6 8 8 6 6 7 8 8 8 8 8 10 9 8 12 14 15 17 20 24 28 29 29 30 31 32 32 33 34 34 35 35 35 35 35 33 32 30 28 26 27 29 32 34 36 37 39 39 38 38 38 38 38 37 38 38 39 39 38 36 36 38 39 39 42 41 39 40 41 40 40 39 34 30 32
1 4 5 6 6 7 5 4 4 2 2 3 4 3 5 7 5 7 6 8 10 8 6 8 7 7 6 6 7 6 7 7 6 8 8 8 11 12 13 14 16 21 24 23 24 26 27 28 29 30 32 33 33 33 33 34 35 35 34 34 33 31 31 33 35 35 35 36 37 38 38 38 38 38 38 38 38 39 40 41 40 39 38 38 38 39 42 43 42 42 42 41 41 39 36 32 32
3 3 6 7 7 7 6 6 4 1 3 4 5 4 2 6 6 7 6 7 10 9 8 9 8 8 8 7 7 6 7 6 6 7 6 6 9 10 13 12 10 14 16 17 19 21 24 26 27 28 29 30 31 31 32 33 34 36 36 35 35 35 35 35 34 33 33 33 33 35 37 38 38 38 39 39 39 40 40 41 40 40 40 41 41 39 39 39 40 41 42 43 44 42 42 41 38
3 4 6 6 6 7 5 6 4 1 2 4 5 2 2 6 7 6 6 5 8 9 8 9 8 8 8 7 7 6 6 5 4 5 5 7 9 9 9 9 8 8 10 11 13 16 19 22 23 24 25 27 28 29 30 32 34 35 35 35 35 36 37 36 34 31 31 31 31 33 34 35 37 38 39 40 40 40 40 40 40 39 39 40 41 42 42 41 39 40 40 41 42 42 44 44 39
4 6 7 6 6 6 5 5 4 3 2 4 6 1 1 5 6 4 3 2 6 7 6 7 7 8 7 7 7 6 5 4 3 4 5 7 9 8 7 5 5 4 5 7 9 11 14 17 20 22 23 24 26 27 29 30 32 33 34 35 36 37 37 36 34 32 31 31 31 33 33 34 35 37 38 40 40 40 39 39 39 39 40 39 38 37 39 40 40 41 41 42 44 45 45 44 40
7 6 7 7 6 5 4 3 4 4 2 6 6 2 1 3 6 4 2 3 5 2 4 6 7 7 7 7 7 7 6 6 5 5 7 9 10 9 9 6 4 3 3 5 7 9 11 14 17 19 21 22 23 25 27 29 30 32 34 35 37 37 36 34 33 34 33 32 33 34 34 34 35 36 37 37 38 38 38 40 39 39 39 39 39 37 36 37 39 42 42 41 44 46 47 46 46
7 5 5 5 4 5 4 4 4 2 4 6 5 2 2 3 5 4 5 6 5 3 3 5 7 8 7 7 7 7 6 6 6 6 7 10 10 10 10 8 6 4 2 3 6 8 10 12 14 17 19 20 21 23 25 27 28 31 33 35 36 36 35 34 34 35 35 35 36 36 35 35 36 36 36 36 37 37 38 40 41 41 41 41 41 41 40 37 36 38 39 39 41 44 45 44 43
5 5 6 5 2 3 2 3 1 3 5 4 2 1 2 5 8 8 10 9 6 7 7 5 6 7 7 7 7 7 6 6 6 6 6 6 7 9 11 9 7 6 4 4 5 7 9 11 13 15 17 18 19 21 23 25 27 30 32 33 35 35 34 35 35 36 35 35 36 36 35 36 36 36 36 37 38 37 38 39 40 42 43 42 42 41 42 41 38 37 36 38 40 43 46 46 45
4 5 5 4 3 2 2 4 2 3 4 3 2 1 2 4 5 8 12 9 6 7 8 6 5 6 7 7 7 6 6 5 5 5 6 5 6 9 11 11 11 9 8 7 6 6 7 9 11 14 15 15 17 20 22 24 27 29 30 32 33 34 34 35 36 36 36 36 36 36 36 36 37 37 37 38 37 36 37 38 39 40 41 41 40 40 39 39 39 38 38 39 42 45 47 48 49
2 4 5 5 5 5 4 4 3 4 3 3 3 2 3 2 1 6 8 6 5 5 6 5 5 6 6 6 5 5 6 6 5 5 6 6 9 12 12 13 13 13 12 11 10 10 10 10 11 13 14 14 15 18 21 24 26 27 29 30 31 32 33 34 36 36 36 36 35 36 37 37 37 38 37 36 35 34 35 35 36 38 38 39 39 39 39 39 38 37 37 39 42 46 46 46 47
1 2 5 3 4 5 3 3 5 3 1 2 2 3 4 3 4 6 4 3 5 5 5 4 4 6 4 5 6 6 6 6 6 6 7 8 11 13 14 15 16 16 15 14 14 13 14 14 14 15 15 15 16 18 20 23 24 26 27 29 29 30 32 34 35 36 35 35 35 36 37 37 37 37 36 35 34 33 33 34 35 36 36 37 38 38 39 39 39 38 37 37 40 43 45 46 47
2 2 3 4 4 7 5 2 1 3 1 3 2 3 5 3 5 7 3 3 5 5 4 4 2 4 6 6 5 5 6 6 6 5 5 7 11 14 16 17 18 18 18 16 16 15 16 16 17 18 18 18 18 19 21 22 23 25 27 27 28 30 31 33 34 35 35 35 35 36 37 37 37 36 35 34 33 33 33 33 34 35 35 35 36 37 38 38 37 38 38 38 38 39 41 43 44
5 3 5 4 2 5 4 2 3 4 2 5 1 4 5 1 3 7 5 3 1 1 3 5 4 4 7 5 4 4 5 5 5 5 5 6 9 13 15 17 18 18 19 18 17 15 15 16 16 18 20 20 20 20 21 22 23 25 26 27 28 29 31 32 33 34 34 34 35 36 36 37 37 35 34 34 34 33 33 33 33 34 34 35 36 36 36 36 35 35 36 37 38 37 37 40 41
5 4 3 4 3 1 2 2 1 1 2 4 4 3 3 4 5 3 1 4 4 4 3 5 6 6 6 5 6 6 5 6 6 6 6 7 10 14 16 18 19 19 19 19 18 16 14 14 15 16 18 20 21 21 21 21 23 24 26 27 28 29 30 31 32 32 33 34 36 36 36 37 36 35 34 34 34 34 33 33 33 33 34 34 35 36 35 34 34 33 34 35 36 36 35 37 38
4 3 3 3 3 4 2 2 3 3 3 3 4 4 3 6 6 5 7 7 7 6 5 6 6 5 4 4 5 5 5 5 6 6 6 7 11 15 17 19 21 21 20 20 20 18 15 14 14 15 18 20 21 22 23 23 23 23 25 27 28 29 30 30 31 32 33 35 36 36 37 37 36 35 35 34 34 34 34 33 33 34 34 34 35 35 35 34 34 34 33 33 34 34 35 36 37
3 3 4 2 1 2 2 1 2 4 4 2 2 4 5 6 4 8 9 7 9 9 8 7 5 4 2 0 0 1 3 4 5 6 6 7 13 18 20 21 23 24 24 24 22 21 20 18 17 17 19 21 23 25 25 26 25 24 25 27 28 29 30 30 31 32 34 36 36 37 37 36 36 36 35 34 34 34 34 34 33 34 34 35 35 35 34 34 35 36 35 33 31 32 34 36 36
6 6 7 7 4 4 3 2 1 2 3 4 3 4 7 5 3 6 7 6 9 8 8 8 6 5 3 3 3 3 1 2 5 6 6 7 12 16 20 22 23 24 26 27 25 23 23 23 22 22 23 24 25 26 26 27 27 27 27 27 27 28 29 30 31 32 34 36 37 37 36 35 36 37 35 34 35 34 34 34 34 35 35 35 35 35 34 34 35 37 37 35 32 31 34 35 35
Wind_Direction
322 328 324 314 308 305 309 65 78 313 73 90 341 91 218 203 206 173 159 198 91 314 283 45 95 119 111 128 161 162 144 163 166 142 202 260 151 158 164 159 161 160 153 149 148 147 149 146 142 141 134 137 139 124 115 110 104 98 95 97 99 99 101 103 105 106 108 107 106 105 106 106 104 105 103 98 94 89 84 86 89 89 89 91 97 99 99 99 95 93 92 95 97 98 94 93 95
331 330 324 314 327 341 242 85 85 327 58 105 263 154 237 331 161 186 190 195 155 147 90 90 89 70 59 86 115 103 58 317 179 169 240 147 143 158 165 159 162 162 154 152 151 151 150 146 145 140 138 145 139 125 120 114 107 100 96 96 98 99 101 103 107 109 110 110 109 107 107 107 105 103 103 103 94 87 84 86 90 91 93 96 100 101 100 100 97 95 94 97 99 101 95 92 96
338 332 332 323 345 37 72 44 87 76 85 173 258 239 257 146 194 208 208 193 144 140 122 99 74 71 62 54 58 90 267 322 165 174 110 145 148 162 166 160 163 162 156 155 153 153 151 149 144 140 146 149 139 131 125 117 110 103 101 98 97 100 105 108 109 110 111 111 111 111 109 104 102 101 102 103 96 90 87 89 95 97 99 101 103 104 103 101 99 97 96 97 101 103 98 94 97
345 337 336 351 27 27 61 42 127 122 130 190 243 255 237 184 200 212 215 200 141 129 125 86 48 58 90 93 91 88 214 298 166 166 151 162 163 164 164 161 164 162 159 157 156 154 152 151 146 147 153 149 142 137 126 119 113 107 104 100 99 102 108 113 113 112 113 113 113 114 111 104 102 103 103 99 97 94 92 94 99 103 104 104 106 106 105 103 101 100 99 100 103 106 103 100 99
342 332 331 75 103 10 91 75 106 115 178 180 172 253 240 199 196 193 198 238 178 157 190 102 72 283 46 131 140 133 212 195 163 186 170 173 169 163 162 164 166 164 163 159 157 157 154 155 153 155 154 149 147 139 127 123 118 111 106 102 102 102 106 112 116 115 115 116 115 115 112 107 104 105 105 102 101 102 105 105 101 102 104 107 109 108 106 104 102 102 103 103 106 107 106 104 101
334 331 346 66 98 132 112 122 145 176 216 167 155 244 226 195 201 182 135 314 232 189 193 118 135 159 42 282 261 172 193 112 169 196 175 174 171 166 165 167 169 167 166 161 160 160 157 157 157 157 153 151 151 140 131 127 121 115 109 104 103 102 104 109 114 117 117 118 117 116 114 111 110 109 107 104 101 105 113 111 105 104 107 111 111 109 107 104 104 104 106 107 109 109 110 107 105
331 331 3 61 43 43 100 156 187 210 208 167 179 204 191 196 201 156 121 131 147 176 139 152 150 113 78 299 325 202 290 175 172 187 178 172 171 169 168 170 171 169 168 165 163 162 160 159 158 159 156 154 152 142 135 132 126 118 111 106 105 105 108 113 115 117 120 121 119 118 117 117 116 113 108 106 105 110 113 110 109 107 109 114 113 111 107 104 106 106 107 109 109 113 114 110 110
342 347 33 98 41 27 90 122 210 198 142 205 222 190 179 191 177 146 150 146 156 191 86 184 150 90 260 341 119 258 301 190 169 179 179 171 171 170 171 174 171 169 170 168 165 165 164 162 163 164 161 161 156 146 141 137 130 121 114 108 109 110 112 117 118 119 122 122 120 118 118 119 118 114 112 112 114 115 112 112 110 106 112 116 116 114 108 105 108 108 109 109 109 115 116 113 115
33 53 351 89 78 36 59 23 287 221 268 257 229 192 168 170 156 137 148 141 173 155 146 197 178 82 200 62 253 280 312 183 166 173 178 174 173 170 175 177 173 170 170 170 167 168 168 169 170 170 168 168 160 152 148 143 135 128 123 115 113 115 116 119 121 121 123 123 121 117 118 121 118 116 114 114 118 116 111 110 107 106 115 117 118 117 110 106 107 108 109 110 111 116 117 117 120
52 27 128 83 83 59 29 299 272 246 266 265 222 205 165 152 153 139 137 157 155 135 180 195 85 86 143 127 248 294 307 172 160 168 176 175 173 172 177 180 177 171 170 172 171 172 173 174 176 175 173 171 166 158 153 148 142 138 134 126 118 118 120 121 124 124 127 129 124 117 120 122 120 120 118 114 116 116 110 107 105 109 116 116 119 118 110 106 104 107 110 112 114 116 118 122 125
48 350 93 76 70 107 186 208 261 262 279 299 264 229 173 141 129 120 104 142 107 110 180 113 90 118 103 308 254 293 234 168 163 169 173 174 174 175 178 180 181 176 172 173 173 176 175 175 178 178 177 175 171 164 158 154 148 146 144 136 126 124 122 122 126 126 131 137 132 122 121 123 123 126 124 118 117 117 112 107 106 111 116 115 118 116 109 106 105 109 113 115 116 117 122 125 128
93 332 71 82 122 178 193 177 239 260 307 310 212 236 160 125 125 177 145 141 127 117 208 197 150 133 86 316 264 307 214 176 174 172 172 174 175 177 181 181 181 181 176 175 176 178 177 176 178 179 180 178 175 169 162 159 156 154 153 147 137 132 127 124 124 126 132 140 140 132 128 132 132 133 129 122 122 118 113 114 115 116 119 117 117 116 111 109 109 114 119 121 120 122 125 125 126
118 143 92 89 154 156 150 153 237 294 326 263 202 210 139 131 191 191 148 116 117 135 250 215 147 111 107 254 278 307 224 188 178 172 174 175 176 179 182 182 181 184 181 179 179 181 181 178 179 181 181 180 177 173 168 164 163 162 162 157 148 142 136 131 127 127 132 139 146 143 141 147 149 149 143 135 134 129 129 134 132 128 126 123 123 126 129 128 127 129 130 129 128 128 126 125 123
140 152 110 102 86 117 145 140 247 160 250 253 226 173 141 152 198 169 135 114 188 178 269 194 145 115 124 222 301 290 212 191 177 173 176 176 180 181 182 184 185 185 185 186 184 184 185 182 181 181 181 181 180 178 175 172 169 169 171 167 158 152 146 141 135 132 135 138 147 152 153 156 155 158 157 150 146 140 144 148 143 137 133 132 136 147 151 147 148 149 148 144 142 138 133 130 125
147 133 89 104 51 68 170 180 175 155 216 225 193 160 127 346 148 140 151 143 209 224 81 107 137 168 182 165 223 224 193 183 174 172 176 179 183 183 186 187 187 188 189 191 190 190 188 186 184 182 183 182 183 183 181 178 174 175 177 175 166 160 155 150 146 141 140 141 146 156 162 163 160 162 163 159 152 146 149 149 145 142 139 140 146 158 157 152 157 160 158 156 153 150 147 142 136
122 107 69 84 79 180 188 189 135 145 226 207 211 154 110 315 146 141 210 145 161 297 42 341 46 354 191 174 227 204 181 172 169 170 174 179 183 185 189 190 191 193 194 196 195 195 193 190 188 186 185 184 185 185 185 182 178 180 182 183 176 168 165 159 156 150 146 147 151 158 165 169 169 169 169 166 157 155 159 157 153 150 148 147 145 152 155 155 161 163 162 161 157 155 153 152 148
71 82 72 81 150 196 193 175 167 177 221 220 251 176 123 219 252 150 195 95 123 44 24 269 295 354 205 237 309 187 172 166 166 167 170 175 179 182 187 190 192 194 196 199 198 198 196 195 193 190 189 188 187 186 189 187 182 185 186 189 186 178 174 170 167 162 156 157 158 162 166 170 172 173 174 169 162 164 168 164 161 157 155 151 141 139 149 158 164 165 163 160 159 158 157 156 153
58 82 105 155 179 189 179 178 196 182 179 195 215 177 132 151 189 148 68 49 65 44 4 330 312 324 277 286 302 167 167 166 167 165 165 170 175 179 183 189 191 193 197 199 201 201 199 198 197 194 193 192 190 190 192 190 188 189 190 193 192 187 183 179 177 172 168 168 167 168 169 170 170 172 173 170 168 170 171 169 167 164 162 156 145 138 149 162 166 165 165 163 164 163 163 160 157
87 108 104 218 203 194 190 180 197 198 170 169 175 169 142 161 164 130 149 9 44 99 313 346 333 314 352 359 144 158 167 169 171 169 168 170 176 180 183 188 192 195 197 200 201 202 202 201 199 199 197 195 194 193 194 194 193 193 194 196 195 192 191 188 185 182 179 178 176 175 174 174 173 171 171 170 172 174 174 175 172 167 166 163 156 152 159 168 171 170 169 168 168 168 170 166 164
145 119 97 242 214 210 219 186 209 237 177 144 149 168 135 172 167 144 163 153 91 197 222 330 281 265 316 64 144 156 168 173 177 177 175 177 181 184 186 190 194 197 199 201 201 203 204 203 202 203 202 199 197 196 196 197 197 197 198 199 198 197 196 195 193 192 190 188 186 184 184 182 180 177 174 174 176 178 179 181 178 170 169 170 165 164 170 175 177 177 174 174 174 173 174 172 170
144 119 168 229 196 183 221 189 227 251 173 147 134 117 128 221 180 141 142 133 273 246 218 199 208 209 185 188 161 160 171 178 185 187 185 185 186 190 192 195 197 199 201 201 202 204 206 207 206 206 205 203 201 199 199 199 200 201 202 203 203 201 200 201 200 199 198 197 194 191 193 191 188 184 181 182 183 183 184 185 184 178 174 172 169 172 177 179 181 182 181 181 180 180 181 180 180
97 140 195 204 156 104 239 187 216 191 124 113 120 143 175 169 136 150 146 155 230 233 217 209 200 179 170 176 170 167 176 184 191 195 195 194 193 195 197 199 200 201 203 203 205 206 207 209 209 208 207 206 205 204 202 202 203 203 205 207 207 205 205 205 205 205 204 204 202 198 198 198 195 192 189 189 190 191 191 192 190 186 183 178 175 180 182 182 186 188 187 188 187 187 188 187 188
111 261 233 204 190 192 328 7 249 151 118 132 156 174 149 120 200 189 166 192 220 219 226 216 196 172 166 162 165 172 181 189 196 200 200 198 199 200 200 201 201 202 204 206 207 208 209 210 210 211 210 208 208 208 206 205 206 207 208 210 210 209 208 208 208 209 209 209 209 206 203 204 202 198 196 196 197 198 197 197 197 194 191 186 183 186 186 186 190 193 193 193 193 194 195 194 193
97 162 277 172 190 218 343 9 12 121 135 178 172 126 135 158 184 144 197 229 236 249 286 203 166 157 157 156 173 184 187 193 200 203 203 203 203 203 202 203 204 205 206 208 209 209 210 210 211 212 212 211 210 210 210 209 209 210 210 211 213 212 211 211 211 212 212 212 213 212 210 210 208 206 203 201 203 203 203 202 201 200 198 196 193 192 192 191 193 197 199 198 199 199 201 200 199
88 157 205 111 87 319 344 21 48 73 118 148 112 117 212 194 163 133 235 246 250 259 31 118 139 144 160 171 183 189 193 200 204 207 208 210 210 209 209 208 208 208 210 211 211 211 211 211 211 213 213 213 212 212 212 212 212 212 212 213 214 215 215 215 214 213 214 214 214 215 214 213 213 212 209 207 207 207 207 207 206 205 203 203 200 198 198 197 196 199 202 204 205 204 205 204 202
177 132 146 103 21 336 3 27 25 29 44 63 110 112 316 238 204 266 248 251 245 94 79 115 138 151 177 183 187 189 195 203 206 209 211 214 215 216 216 214 212 212 214 215 213 213 213 212 212 213 214 214 214 213 213 214 214 213 214 216 215 215 217 218 218 215 216 217 217 216 216 217 217 215 213 211 211 211 211 211 210 208 207 207 206 204 203 204 203 202 205 208 209 209 207 206 205
151 105 96 73 11 329 25 53 345 354 22 47 149 199 302 307 302 258 267 293 111 103 94 138 155 170 189 190 195 196 198 204 205 206 210 214 216 219 219 217 217 216 216 216 216 216 214 213 214 214 215 216 216 214 214 216 216 215 216 219 219 218 218 218 221 219 216 218 220 219 218 218 218 218 217 215 215 216 215 214 213 211 210 210 209 208 207 208 208 206 207 209 212 213 209 206 205
112 114 89 8 357 350 25 77 335 347 84 48 133 174 298 352 278 227 272 332 100 137 136 168 182 194 199 198 202 202 209 211 206 203 206 210 214 216 217 217 218 217 217 219 218 217 216 215 215 215 216 216 217 217 217 217 217 217 217 220 222 223 221 217 221 223 219 218 220 222 221 220 219 220 221 220 220 219 219 218 216 215 214 212 211 210 209 209 210 209 208 209 212 213 212 208 205
101 100 99 338 0 14 351 58 307 341 122 293 111 46 301 244 236 225 228 7 47 134 173 199 210 218 216 212 214 213 220 217 208 211 213 214 215 215 217 219 218 217 219 221 219 218 218 218 217 217 217 217 218 219 219 219 219 218 218 220 223 226 225 221 220 223 223 220 219 222 224 223 223 223 223 223 224 224 223 222 220 219 216 214 212 211 210 210 210 209 208 208 211 212 213 210 206
100 55 98 357 8 353 324 22 301 341 136 304 108 215 282 255 252 248 282 13 87 157 222 224 228 234 236 228 227 230 228 219 213 218 220 219 219 219 221 223 221 221 222 221 221 221 220 220 218 218 219 219 219 220 221 221 220 219 220 221 223 225 227 226 223 224 226 225 223 223 224 226 227 228 228 226 226 228 228 226 225 223 219 216 213 212 211 211 211 211 211 209 210 212 213 213 210
75 42 55 33 59 266 304 338 210 149 261 5 97 154 265 271 277 274 298 300 158 206 234 229 236 238 238 234 231 240 236 226 225 225 225 225 225 223 225 226 225 224 225 223 223 223 222 221 220 219 220 221 221 221 221 222 221 221 221 222 223 225 227 228 228 226 228 230 230 227 225 226 228 231 234 232 228 228 229 229 229 227 221 217 215 214 213 213 213 214 214 212 209 211 213 213 212
42 87 321 344 161 262 310 321 159 151 296 34 90 193 268 278 276 273 326 58 163 208 236 239 247 243 239 237 232 239 244 237 236 236 233 232 230 228 229 229 227 226 226 226 226 225 224 223 222 221 221 222 223 223 223 223 223 223 223 224 224 225 227 228 229 229 230 232 233 233 230 229 229 230 234 235 232 231 230 229 232 232 225 219 216 215 214 214 216 216 217 217 213 210 210 211 212
5 101 199 276 177 272 315 326 329 76 218 15 67 209 265 291 276 274 337 64 129 207 252 256 250 249 244 236 236 239 249 248 243 240 238 236 234 232 231 231 230 229 228 228 227 226 226 225 223 223 224 224 224 224 224 224 225 225 225 226 226 227 229 229 230 230 230 231 232 233 233 233 232 231 231 232 231 231 230 229 233 236 231 224 219 216 216 218 220 219 218 218 219 216 212 211 210
300 54 144 230 192 207 287 289 319 39 87 317 17 236 251 275 287 290 309 56 60 282 264 258 247 250 250 240 245 244 245 250 244 239 238 236 236 235 235 234 234 233 232 231 229 228 228 226 225 225 226 226 225 225 225 225 226 228 229 229 229 230 231 232 232 231 231 231 232 232 233 235 235 233 231 230 230 229 229 227 226 228 230 228 223 219 218 220 223 224 222 220 220 219 216 213 210
187 179 160 212 218 205 248 256 259 41 62 269 351 284 263 271 286 291 290 351 313 274 265 265 258 249 250 246 246 245 245 249 245 242 241 240 239 239 238 237 236 235 234 233 231 230 230 228 227 227 226 226 226 226 225 226 227 228 230 231 231 232 232 232 231 231 231 230 232 233 233 234 236 235 232 230 230 230 229 228 225 222 223 224 222 220 218 218 218 219 222 224 219 218 220 216 211
168 175 150 157 177 224 243 252 266 85 100 253 238 241 267 276 282 283 287 348 299 276 283 277 267 255 251 246 244 246 245 248 249 248 249 248 245 244 242 240 238 237 235 233 231 229 228 228 227 227 227 225 224 224 224 224 225 226 228 228 230 231 231 230 230 230 231 231 231 231 230 231 233 235 235 233 231 230 230 232 231 226 224 221 218 218 219 220 220 218 220 223 219 214 216 215 212
138 129 111 147 165 222 249 264 303 4 130 260 245 250 271 271 273 271 278 331 312 274 276 268 263 259 253 246 247 245 242 251 258 257 254 253 252 250 247 243 238 236 235 232 229 229 229 228 226 226 227 224 222 222 222 222 221 222 224 226 229 230 230 230 230 230 231 232 232 231 232 232 232 232 233 234 232 230 230 231 229 226 225 222 220 220 221 223 223 222 221 220 219 213 211 213 211
95 125 121 124 176 211 245 241 319 359 118 265 358 325 274 262 269 270 269 286 269 250 250 256 256 255 255 254 255 253 253 264 268 262 258 254 253 251 245 240 235 233 233 231 229 230 229 227 225 227 227 223 222 223 222 223 223 222 223 225 229 230 231 231 231 233 233 233 234 233 234 235 234 233 232 233 232 230 229 228 229 230 228 225 223 221 220 220 220 220 216 212 212 212 212 212 207
81 109 126 136 206 243 286 301 340 9 53 271 345 332 279 263 261 264 258 251 254 246 237 246 253 257 256 250 253 259 265 271 269 263 261 256 253 249 243 237 234 234 234 231 229 229 227 226 226 227 226 224 224 224 223 225 226 226 226 227 229 230 233 235 235 236 236 236 236 235 236 236 236 236 235 235 233 231 230 228 230 235 235 231 226 222 219 218 219 218 216 211 207 207 211 211 207
88 108 129 164 247 180 244 299 338 11 70 269 316 306 283 283 280 276 270 255 265 272 258 254 248 247 253 255 259 262 264 272 276 271 263 258 254 248 241 238 237 235 234 231 229 227 226 226 227 227 227 227 226 225 225 227 227 227 227 229 231 232 235 237 239 239 239 238 238 237 237 236 236 236 236 237 236 236 236 233 230 229 231 230 226 224 222 221 221 219 217 215 209 203 204 208 208
46 140 140 164 214 174 173 300 346 4 26 26 353 320 293 315 334 295 299 326 300 307 312 286 261 251 267 281 277 262 258 266 273 274 271 260 254 248 243 241 239 236 234 234 231 228 227 228 229 228 228 228 227 227 226 225 224 224 224 226 229 232 235 236 236 237 237 238 239 238 237 236 235 236 236 237 238 239 239 237 234 230 229 227 225 226 226 225 224 221 217 215 212 209 207 207 207
291 221 175 176 176 164 154 38 50 36 359 353 24 0 292 317 328 279 304 344 317 319 321 291 288 299 293 283 275 264 261 259 258 269 276 273 267 262 256 246 239 238 238 238 235 232 230 230 230 228 228 229 229 229 227 224 223 222 221 221 223 226 229 231 232 234 235 237 238 239 240 238 236 236 236 237 238 238 237 237 237 237 233 229 230 233 233 230 226 221 218 215 213 214 212 207 207
219 233 177 153 131 128 128 91 71 75 271 321 48 103 266 310 308 274 311 333 313 318 313 298 309 315 298 280 279 275 270 268 262 269 277 281 281 278 272 259 246 243 244 243 239 235 233 232 232 230 229 230 230 230 227 225 223 223 223 224 225 226 228 233 235 237 239 240 241 241 241 241 239 237 237 236 237 237 238 238 239 240 238 236 236 234 230 228 226 224 223 222 220 220 215 212 212
207 226 133 123 116 125 130 98 86 190 244 329 19 108 242 297 274 272 321 331 317 325 319 315 322 317 314 308 296 283 266 265 270 283 299 301 294 290 285 285 275 259 253 249 244 238 235 234 234 233 232 231 231 230 228 227 226 226 227 228 229 231 234 239 241 242 243 243 243 243 242 243 242 241 240 238 237 237 239 239 238 237 237 238 239 237 233 230 228 227 226 226 225 223 220 219 217
227 194 122 120 119 122 115 92 88 16 11 321 320 77 197 274 275 300 346 334 309 313 308 312 319 317 322 322 314 303 281 271 270 284 305 313 315 316 306 306 310 288 265 254 248 243 238 236 235 235 234 233 232 231 231 230 230 230 230 230 232 235 238 242 244 246 246 245 245 245 244 244 244 244 243 242 239 238 239 240 239 238 237 237 236 236 237 234 231 229 228 227 225 223 222 222 219
180 142 100 77 73 78 75 87 98 45 29 252 267 325 183 268 287 310 359 302 264 277 287 292 303 306 309 319 326 330 331 338 330 300 304 327 345 359 356 341 334 320 277 251 245 241 237 236 235 235 236 236 235 235 234 234 233 233 233 233 235 238 241 243 244 246 246 246 246 246 246 245 246 246 245 244 242 239 239 240 240 238 238 239 239 237 235 234 235 234 233 232 230 226 224 222 221
134 109 74 58 34 34 46 52 77 62 319 254 253 282 162 266 284 264 217 225 218 229 304 305 315 323 320 327 339 348 351 346 338 323 327 346 6 23 27 24 11 349 295 252 244 239 235 234 234 235 238 238 238 238 237 237 237 236 237 238 239 241 242 243 244 245 245 245 246 247 247 248 248 248 247 246 244 241 239 239 239 239 238 239 241 243 243 241 241 239 237 235 233 229 226 225 225
104 89 84 78 4 10 25 2 37 97 258 261 260 270 162 219 267 260 244 250 228 199 249 295 315 320 320 324 334 342 342 336 338 340 340 350 359 6 16 27 24 4 314 263 249 245 242 238 236 237 239 239 240 241 240 241 240 240 241 242 243 244 244 245 245 247 247 247 248 249 249 250 250 250 249 247 245 243 241 240 240 241 242 242 242 244 246 248 247 242 237 235 233 231 229 227 225
75 91 94 89 12 10 359 316 347 213 244 268 271 246 199 231 251 258 262 259 234 218 221 237 280 292 305 325 334 334 332 331 337 341 337 339 337 339 350 358 357 354 337 305 268 255 251 246 245 245 245 245 245 245 245 245 244 245 245 245 246 247 247 247 249 250 251 251 252 252 252 251 252 251 250 249 249 247 245 244 242 242 243 244 245 245 246 249 251 249 244 240 237 235 233 231 231
118 131 124 120 119 98 261 269 285 256 260 288 290 264 255 269 263 247 251 254 234 226 232 231 242 259 281 303 314 318 323 324 322 329 330 324 327 336 340 339 336 334 329 319 304 289 272 261 256 255 257 255 253 253 252 250 250 250 250 250 250 250 250 251 252 253 254 255 255 256 256 256 255 255 255 255 256 254 251 250 248 248 247 246 247 247 247 248 250 251 250 246 243 240 237 235 234
164 155 128 139 155 155 204 221 209 241 277 305 297 265 198 197 252 229 233 263 274 259 269 277 264 258 271 297 318 330 339 344 340 345 343 333 341 347 346 343 338 330 324 317 311 304 295 287 276 270 272 269 265 264 260 258 258 256 254 253 253 253 254 255 256 257 257 257 258 259 260 260 259 260 261 261 261 258 257 257 255 254 252 250 250 250 250 249 249 252 253 251 247 244 241 237 235
231 125 106 154 186 140 137 182 171 173 309 302 260 235 215 203 273 269 250 304 314 294 306 332 302 292 334 3 354 348 345 350 355 359 352 343 351 356 353 353 349 341 333 322 316 310 302 298 291 283 283 280 276 273 270 268 266 263 259 257 257 257 257 257 258 259 259 259 261 261 262 263 264 264 264 264 263 262 261 261 260 259 258 255 253 251 250 250 250 251 253 254 250 245 241 238 235
162 129 172 212 175 114 114 207 82 82 224 270 225 242 292 326 297 298 334 10 343 331 349 28 338 327 18 25 1 351 344 345 347 342 334 335 352 359 358 358 355 349 344 334 328 320 309 303 297 293 291 287 285 282 281 279 274 269 265 261 260 260 259 260 261 262 262 263 263 263 264 265 265 266 266 266 266 265 264 263 262 262 261 259 257 255 253 253 252 252 252 254 254 249 242 237 235
123 176 207 192 122 90 105 178 7 43 237 275 273 231 283 338 279 313 2 44 29 48 46 54 55 36 42 36 16 2 340 338 339 336 339 346 358 2 1 0 357 354 349 343 337 330 320 314 308 304 302 300 297 293 288 285 280 276 272 269 267 265 264 264 264 265 265 265 265 265 266 267 267 267 269 269 268 267 266 264 263 263 263 262 261 260 259 257 255 254 254 254 255 253 246 241 239
127 181 174 116 138 159 88 146 169 128 234 284 302 272 258 201 224 300 55 146 147 138 109 87 91 80 68 56 39 20 1 0 359 354 352 353 359 1 359 357 356 356 353 347 341 335 333 332 327 322 320 316 311 304 297 292 287 282 279 275 272 270 268 267 267 267 267 266 267 268 268 269 269 270 270 270 270 269 268 266 264 264 263 262 262 262 262 261 258 257 257 255 254 254 250 245 242
58 103 103 78 133 163 157 151 159 171 198 270 307 318 271 228 216 200 195 184 158 145 132 124 120 105 93 72 49 27 17 9 355 350 339 339 351 355 356 355 354 355 355 351 341 332 332 336 336 336 333 328 323 316 310 304 298 292 287 282 278 274 272 271 270 269 268 269 269 270 270 270 271 272 271 271 271 270 269 268 267 266 264 262 262 261 261 261 259 257 256 256 255 254 253 250 246
113 126 160 173 88 110 153 144 117 139 162 191 281 299 268 249 216 197 206 186 161 157 149 152 153 136 144 118 47 333 1 351 334 336 326 331 346 351 356 357 355 355 357 358 350 337 334 335 335 336 333 329 328 325 320 314 309 302 296 291 286 282 277 275 273 271 270 271 271 270 270 271 271 271 271 271 271 271 270 270 268 267 265 263 261 260 259 258 258 257 255 255 259 259 257 255 253
168 179 189 178 153 124 148 242 254 114 150 171 185 266 263 253 211 208 214 178 169 167 145 153 172 172 198 250 246 235 269 311 301 306 311 327 343 350 354 355 355 357 360 2 1 353 347 345 341 337 331 328 327 325 323 320 316 310 303 300 295 289 283 278 275 273 272 272 271 271 270 270 270 271 271 270 271 272 271 270 268 267 265 263 261 259 258 257 256 257 254 253 257 262 262 259 257